Time,TemperatureF,DewpointF,PressureIn,WindDirection,WindDirectionDegrees,WindSpeedMPH,WindSpeedGustMPH,Humidity,HourlyPrecipIn,Conditions,Clouds,dailyrainin,SoftwareType,DateUTC
2013-03-30 00:02:00,38.0,28.0,30.38,NNW,331,2.0,-999.0,67,-99.99,,,-99.99,,2013-03-30 04:02:00,
2013-03-30 00:13:00,38.0,28.0,30.38,NNW,331,2.0,-999.0,67,-99.99,,,-99.99,,2013-03-30 04:13:00,
2013-03-30 00:23:00,38.0,28.0,30.38,NNW,331,0.0,-999.0,68,-99.99,,,-99.99,,2013-03-30 04:23:00,
2013-03-30 00:33:00,38.0,29.0,30.38,NNW,331,2.0,-999.0,69,-99.99,,,-99.99,,2013-03-30 04:33:00,
2013-03-30 00:43:00,38.0,29.0,30.38,NNW,331,2.0,-999.0,69,-99.99,,,-99.99,,2013-03-30 04:43:00,
2013-03-30 00:52:00,37.0,28.0,30.37,NNW,331,1.0,-999.0,71,-99.99,,,-99.99,,2013-03-30 04:52:00,
2013-03-30 01:02:00,37.0,29.0,30.37,NNW,331,3.0,-999.0,72,-99.99,,,-99.99,,2013-03-30 05:02:00,
2013-03-30 01:12:00,37.0,29.0,30.37,NNW,331,3.0,-999.0,72,-99.99,,,-99.99,,2013-03-30 05:12:00,
2013-03-30 01:22:00,36.0,28.0,30.37,NNW,331,1.0,-999.0,73,-99.99,,,-99.99,,2013-03-30 05:22:00,
2013-03-30 01:32:00,36.0,29.0,30.36,WNW,295,4.0,-999.0,74,-99.99,,,-99.99,,2013-03-30 05:32:00,
2013-03-30 01:42:00,36.0,29.0,30.36,WNW,295,4.0,-999.0,74,-99.99,,,-99.99,,2013-03-30 05:42:00,
2013-03-30 01:52:00,36.0,29.0,30.36,WNW,295,1.0,-999.0,75,-99.99,,,-99.99,,2013-03-30 05:52:00,
2013-03-30 02:02:00,35.0,28.0,30.36,WNW,295,0.0,-999.0,75,-99.99,,,-99.99,,2013-03-30 06:02:00,
2013-03-30 02:12:00,35.0,28.0,30.36,WNW,295,0.0,-999.0,75,-99.99,,,-99.99,,2013-03-30 06:12:00,
2013-03-30 02:23:00,34.0,28.0,30.35,WNW,294,1.0,-999.0,78,-99.99,,,-99.99,,2013-03-30 06:23:00,
2013-03-30 02:32:00,33.0,28.0,30.35,North,355,1.0,-999.0,80,-99.99,,,-99.99,,2013-03-30 06:32:00,
2013-03-30 02:42:00,33.0,28.0,30.35,North,355,1.0,-999.0,80,-99.99,,,-99.99,,2013-03-30 06:42:00,
2013-03-30 02:52:00,33.0,28.0,30.35,North,355,0.0,-999.0,80,-99.99,,,-99.99,,2013-03-30 06:52:00,
2013-03-30 03:02:00,32.0,27.0,30.35,North,355,0.0,-999.0,83,-99.99,,,-99.99,,2013-03-30 07:02:00,
2013-03-30 03:12:00,32.0,27.0,30.35,North,355,0.0,-999.0,83,-99.99,,,-99.99,,2013-03-30 07:12:00,
2013-03-30 03:22:00,32.0,28.0,30.35,North,355,2.0,-999.0,84,-99.99,,,-99.99,,2013-03-30 07:22:00,
2013-03-30 03:32:00,31.0,26.0,30.35,NNW,346,1.0,-999.0,83,-99.99,,,-99.99,,2013-03-30 07:32:00,
2013-03-30 03:42:00,31.0,26.0,30.35,NNW,346,1.0,-999.0,83,-99.99,,,-99.99,,2013-03-30 07:42:00,
2013-03-30 03:52:00,31.0,27.0,30.35,NNW,346,0.0,-999.0,85,-99.99,,,-99.99,,2013-03-30 07:52:00,
2013-03-30 04:02:00,32.0,28.0,30.34,NNW,346,0.0,-999.0,85,-99.99,,,-99.99,,2013-03-30 08:02:00,
2013-03-30 04:12:00,32.0,28.0,30.34,NNW,346,0.0,-999.0,85,-99.99,,,-99.99,,2013-03-30 08:12:00,
2013-03-30 04:22:00,32.0,28.0,30.34,NNW,346,0.0,-999.0,85,-99.99,,,-99.99,,2013-03-30 08:22:00,
2013-03-30 04:32:00,32.0,28.0,30.34,NNW,346,0.0,-999.0,84,-99.99,,,-99.99,,2013-03-30 08:32:00,
2013-03-30 04:42:00,32.0,28.0,30.34,NNW,346,0.0,-999.0,84,-99.99,,,-99.99,,2013-03-30 08:42:00,
2013-03-30 04:52:00,32.0,28.0,30.34,NNW,346,1.0,-999.0,84,-99.99,,,-99.99,,2013-03-30 08:52:00,
2013-03-30 05:02:00,32.0,28.0,30.34,NNW,346,0.0,-999.0,84,-99.99,,,-99.99,,2013-03-30 09:02:00,
2013-03-30 05:12:00,31.0,27.0,30.33,NNW,346,0.0,-999.0,85,-99.99,,,-99.99,,2013-03-30 09:12:00,
2013-03-30 05:22:00,31.0,27.0,30.33,NNW,346,0.0,-999.0,85,-99.99,,,-99.99,,2013-03-30 09:22:00,
2013-03-30 05:33:00,31.0,27.0,30.33,NNW,346,0.0,-999.0,85,-99.99,,,-99.99,,2013-03-30 09:33:00,
2013-03-30 05:43:00,31.0,27.0,30.33,NNW,346,0.0,-999.0,85,-99.99,,,-99.99,,2013-03-30 09:43:00,
2013-03-30 05:53:00,30.0,27.0,30.33,NNW,346,0.0,-999.0,87,-99.99,,,-99.99,,2013-03-30 09:53:00,
2013-03-30 06:03:00,30.0,26.0,30.34,North,360,2.0,-999.0,86,-99.99,,,-99.99,,2013-03-30 10:03:00,
2013-03-30 06:13:00,30.0,26.0,30.34,North,360,2.0,-999.0,86,-99.99,,,-99.99,,2013-03-30 10:13:00,
2013-03-30 06:23:00,30.0,27.0,30.34,North,360,2.0,-999.0,87,-99.99,,,-99.99,,2013-03-30 10:23:00,
2013-03-30 06:33:00,30.0,26.0,30.34,North,360,1.0,-999.0,86,-99.99,,,-99.99,,2013-03-30 10:33:00,
2013-03-30 06:42:00,30.0,26.0,30.34,North,360,1.0,-999.0,86,-99.99,,,-99.99,,2013-03-30 10:42:00,
2013-03-30 06:52:00,30.0,26.0,30.35,North,360,0.0,-999.0,86,-99.99,,,-99.99,,2013-03-30 10:52:00,
2013-03-30 07:04:00,29.0,26.0,30.35,North,360,0.0,-999.0,87,-99.99,,,-99.99,,2013-03-30 11:04:00,
2013-03-30 07:12:00,29.0,26.0,30.35,North,360,0.0,-999.0,87,-99.99,,,-99.99,,2013-03-30 11:12:00,
2013-03-30 07:23:00,29.0,26.0,30.35,North,360,0.0,-999.0,89,-99.99,,,-99.99,,2013-03-30 11:23:00,
2013-03-30 07:33:00,29.0,26.0,30.35,North,360,0.0,-999.0,88,-99.99,,,-99.99,,2013-03-30 11:33:00,
2013-03-30 07:42:00,29.0,26.0,30.35,North,360,0.0,-999.0,88,-99.99,,,-99.99,,2013-03-30 11:42:00,
2013-03-30 07:52:00,29.0,26.0,30.36,North,360,0.0,-999.0,89,-99.99,,,-99.99,,2013-03-30 11:52:00,
2013-03-30 08:02:00,28.0,25.0,30.36,North,360,0.0,-999.0,89,-99.99,,,-99.99,,2013-03-30 12:02:00,
2013-03-30 08:13:00,28.0,25.0,30.36,North,360,0.0,-999.0,89,-99.99,,,-99.99,,2013-03-30 12:13:00,
2013-03-30 08:22:00,29.0,27.0,30.37,North,360,1.0,-999.0,91,-99.99,,,-99.99,,2013-03-30 12:22:00,
2013-03-30 08:33:00,29.0,26.0,30.37,North,360,1.0,-999.0,90,-99.99,,,-99.99,,2013-03-30 12:33:00,
2013-03-30 08:42:00,29.0,26.0,30.37,North,360,1.0,-999.0,90,-99.99,,,-99.99,,2013-03-30 12:42:00,
2013-03-30 08:52:00,30.0,27.0,30.37,North,360,0.0,-999.0,87,-99.99,,,-99.99,,2013-03-30 12:52:00,
2013-03-30 09:02:00,31.0,28.0,30.38,North,360,0.0,-999.0,88,-99.99,,,-99.99,,2013-03-30 13:02:00,
2013-03-30 09:12:00,31.0,28.0,30.38,North,360,0.0,-999.0,88,-99.99,,,-99.99,,2013-03-30 13:12:00,
2013-03-30 09:22:00,33.0,30.0,30.38,North,360,0.0,-999.0,87,-99.99,,,-99.99,,2013-03-30 13:22:00,
2013-03-30 09:32:00,35.0,30.0,30.38,North,360,0.0,-999.0,83,-99.99,,,-99.99,,2013-03-30 13:32:00,
2013-03-30 09:43:00,35.0,30.0,30.38,North,360,0.0,-999.0,83,-99.99,,,-99.99,,2013-03-30 13:43:00,
2013-03-30 09:52:00,36.0,30.0,30.38,North,360,0.0,-999.0,80,-99.99,,,-99.99,,2013-03-30 13:52:00,
2013-03-30 10:03:00,38.0,31.0,30.38,North,360,1.0,-999.0,75,-99.99,,,-99.99,,2013-03-30 14:03:00,
2013-03-30 10:12:00,38.0,31.0,30.38,North,360,1.0,-999.0,75,-99.99,,,-99.99,,2013-03-30 14:12:00,
2013-03-30 10:23:00,41.0,32.0,30.38,WNW,294,1.0,-999.0,71,-99.99,,,-99.99,,2013-03-30 14:23:00,
2013-03-30 10:32:00,42.0,31.0,30.37,SE,128,2.0,-999.0,64,-99.99,,,-99.99,,2013-03-30 14:32:00,
2013-03-30 10:42:00,42.0,31.0,30.37,SE,128,2.0,-999.0,64,-99.99,,,-99.99,,2013-03-30 14:42:00,
2013-03-30 10:52:00,44.0,31.0,30.37,South,173,4.0,-999.0,61,-99.99,,,-99.99,,2013-03-30 14:52:00,
2013-03-30 11:03:00,45.0,29.0,30.37,SSE,157,4.0,-999.0,54,-99.99,,,-99.99,,2013-03-30 15:03:00,
2013-03-30 11:12:00,45.0,29.0,30.37,SSE,157,4.0,-999.0,54,-99.99,,,-99.99,,2013-03-30 15:12:00,
2013-03-30 11:22:00,46.0,29.0,30.37,SSE,161,4.0,-999.0,51,-99.99,,,-99.99,,2013-03-30 15:22:00,
2013-03-30 11:34:00,46.0,28.0,30.35,SE,137,5.0,-999.0,50,-99.99,,,-99.99,,2013-03-30 15:34:00,
2013-03-30 11:43:00,46.0,28.0,30.35,SE,137,5.0,-999.0,50,-99.99,,,-99.99,,2013-03-30 15:43:00,
2013-03-30 11:52:00,47.0,30.0,30.34,SE,143,6.0,-999.0,51,-99.99,,,-99.99,,2013-03-30 15:52:00,
2013-03-30 12:03:00,47.0,28.0,30.35,West,275,5.0,-999.0,48,-99.99,,,-99.99,,2013-03-30 16:03:00,
2013-03-30 12:13:00,48.0,29.0,30.34,SSW,210,4.0,-999.0,48,-99.99,,,-99.99,,2013-03-30 16:13:00,
2013-03-30 12:23:00,48.0,29.0,30.34,SSW,210,4.0,-999.0,48,-99.99,,,-99.99,,2013-03-30 16:23:00,
2013-03-30 12:33:00,48.0,29.0,30.33,South,182,5.0,-999.0,47,-99.99,,,-99.99,,2013-03-30 16:33:00,
2013-03-30 12:43:00,48.0,29.0,30.33,South,182,5.0,-999.0,47,-99.99,,,-99.99,,2013-03-30 16:43:00,
2013-03-30 12:52:00,49.0,30.0,30.33,SE,128,5.0,-999.0,47,-99.99,,,-99.99,,2013-03-30 16:52:00,
2013-03-30 13:02:00,50.0,30.0,30.34,SSW,194,2.0,-999.0,46,-99.99,,,-99.99,,2013-03-30 17:02:00,
2013-03-30 13:13:00,50.0,30.0,30.34,SSW,194,2.0,-999.0,46,-99.99,,,-99.99,,2013-03-30 17:13:00,
2013-03-30 13:23:00,51.0,30.0,30.32,SE,135,6.0,-999.0,44,-99.99,,,-99.99,,2013-03-30 17:23:00,
2013-03-30 13:33:00,51.0,31.0,30.32,SW,222,6.0,-999.0,47,-99.99,,,-99.99,,2013-03-30 17:33:00,
2013-03-30 13:42:00,51.0,31.0,30.32,SW,222,6.0,-999.0,47,-99.99,,,-99.99,,2013-03-30 17:42:00,
2013-03-30 13:52:00,51.0,30.0,30.31,South,171,5.0,-999.0,45,-99.99,,,-99.99,,2013-03-30 17:52:00,
2013-03-30 14:03:00,52.0,30.0,30.30,ESE,120,5.0,-999.0,43,-99.99,,,-99.99,,2013-03-30 18:03:00,
2013-03-30 14:13:00,52.0,28.0,30.29,SE,144,6.0,-999.0,39,-99.99,,,-99.99,,2013-03-30 18:13:00,
2013-03-30 14:22:00,52.0,28.0,30.29,SE,144,6.0,-999.0,39,-99.99,,,-99.99,,2013-03-30 18:22:00,
2013-03-30 14:33:00,52.0,28.0,30.28,NW,314,6.0,-999.0,39,-99.99,,,-99.99,,2013-03-30 18:33:00,
2013-03-30 14:42:00,52.0,28.0,30.28,NW,314,6.0,-999.0,39,-99.99,,,-99.99,,2013-03-30 18:42:00,
2013-03-30 14:53:00,53.0,28.0,30.28,SE,128,5.0,-999.0,38,-99.99,,,-99.99,,2013-03-30 18:53:00,
2013-03-30 15:03:00,53.0,29.0,30.27,WNW,292,5.0,-999.0,39,-99.99,,,-99.99,,2013-03-30 19:03:00,
2013-03-30 15:13:00,53.0,29.0,30.27,WNW,292,5.0,-999.0,39,-99.99,,,-99.99,,2013-03-30 19:13:00,
2013-03-30 15:22:00,54.0,28.0,30.27,SSE,148,6.0,-999.0,36,-99.99,,,-99.99,,2013-03-30 19:22:00,
2013-03-30 15:32:00,54.0,28.0,30.26,ESE,122,3.0,-999.0,37,-99.99,,,-99.99,,2013-03-30 19:32:00,
2013-03-30 15:42:00,54.0,28.0,30.26,ESE,122,3.0,-999.0,37,-99.99,,,-99.99,,2013-03-30 19:42:00,
2013-03-30 15:52:00,55.0,31.0,30.25,West,275,1.0,-999.0,39,-99.99,,,-99.99,,2013-03-30 19:52:00,
2013-03-30 16:02:00,56.0,29.0,30.25,WSW,248,7.0,-999.0,35,-99.99,,,-99.99,,2013-03-30 20:02:00,
2013-03-30 16:12:00,56.0,29.0,30.25,WSW,248,7.0,-999.0,35,-99.99,,,-99.99,,2013-03-30 20:12:00,
2013-03-30 16:22:00,55.0,28.0,30.24,SSE,155,3.0,-999.0,35,-99.99,,,-99.99,,2013-03-30 20:22:00,
2013-03-30 16:33:00,56.0,28.0,30.24,SSW,209,6.0,-999.0,34,-99.99,,,-99.99,,2013-03-30 20:33:00,
2013-03-30 16:43:00,56.0,28.0,30.24,SSW,209,6.0,-999.0,34,-99.99,,,-99.99,,2013-03-30 20:43:00,
2013-03-30 16:52:00,56.0,29.0,30.23,West,261,5.0,-999.0,36,-99.99,,,-99.99,,2013-03-30 20:52:00,
2013-03-30 17:03:00,56.0,28.0,30.23,NW,307,4.0,-999.0,34,-99.99,,,-99.99,,2013-03-30 21:03:00,
2013-03-30 17:13:00,56.0,28.0,30.23,NW,307,4.0,-999.0,34,-99.99,,,-99.99,,2013-03-30 21:13:00,
2013-03-30 17:23:00,56.0,28.0,30.22,South,176,3.0,-999.0,34,-99.99,,,-99.99,,2013-03-30 21:23:00,
2013-03-30 17:34:00,56.0,29.0,30.22,SSW,205,4.0,-999.0,35,-99.99,,,-99.99,,2013-03-30 21:34:00,
2013-03-30 17:43:00,56.0,29.0,30.22,SSW,205,4.0,-999.0,35,-99.99,,,-99.99,,2013-03-30 21:43:00,
2013-03-30 17:53:00,56.0,29.0,30.22,WSW,240,5.0,-999.0,36,-99.99,,,-99.99,,2013-03-30 21:53:00,
2013-03-30 18:03:00,56.0,29.0,30.22,WNW,285,4.0,-999.0,36,-99.99,,,-99.99,,2013-03-30 22:03:00,
2013-03-30 18:13:00,56.0,29.0,30.22,WNW,285,4.0,-999.0,36,-99.99,,,-99.99,,2013-03-30 22:13:00,
2013-03-30 18:23:00,56.0,29.0,30.21,WNW,299,3.0,-999.0,36,-99.99,,,-99.99,,2013-03-30 22:23:00,
2013-03-30 18:33:00,55.0,29.0,30.21,WSW,241,4.0,-999.0,37,-99.99,,,-99.99,,2013-03-30 22:33:00,
2013-03-30 18:43:00,55.0,29.0,30.21,WSW,241,4.0,-999.0,37,-99.99,,,-99.99,,2013-03-30 22:43:00,
2013-03-30 18:53:00,55.0,30.0,30.22,WNW,282,2.0,-999.0,38,-99.99,,,-99.99,,2013-03-30 22:53:00,
2013-03-30 19:03:00,54.0,28.0,30.22,WNW,299,2.0,-999.0,37,-99.99,,,-99.99,,2013-03-30 23:03:00,
2013-03-30 19:13:00,54.0,28.0,30.22,WNW,299,2.0,-999.0,37,-99.99,,,-99.99,,2013-03-30 23:13:00,
2013-03-30 19:22:00,54.0,30.0,30.22,WNW,301,2.0,-999.0,39,-99.99,,,-99.99,,2013-03-30 23:22:00,
2013-03-30 19:33:00,53.0,34.0,30.22,NW,321,5.0,-999.0,48,-99.99,,,-99.99,,2013-03-30 23:33:00,
2013-03-30 19:42:00,53.0,34.0,30.22,NW,321,5.0,-999.0,48,-99.99,,,-99.99,,2013-03-30 23:42:00,
2013-03-30 19:52:00,52.0,35.0,30.22,NW,324,4.0,-999.0,52,-99.99,,,-99.99,,2013-03-30 23:52:00,
2013-03-30 20:03:00,51.0,34.0,30.22,WNW,300,3.0,-999.0,53,-99.99,,,-99.99,,2013-03-31 00:03:00,
2013-03-30 20:12:00,51.0,34.0,30.22,WNW,300,3.0,-999.0,53,-99.99,,,-99.99,,2013-03-31 00:12:00,
2013-03-30 20:22:00,50.0,35.0,30.22,WNW,300,3.0,-999.0,56,-99.99,,,-99.99,,2013-03-31 00:22:00,
2013-03-30 20:32:00,50.0,35.0,30.22,WNW,300,0.0,-999.0,57,-99.99,,,-99.99,,2013-03-31 00:32:00,
2013-03-30 20:43:00,50.0,35.0,30.22,WNW,300,0.0,-999.0,57,-99.99,,,-99.99,,2013-03-31 00:43:00,
2013-03-30 20:52:00,49.0,35.0,30.22,WNW,300,0.0,-999.0,58,-99.99,,,-99.99,,2013-03-31 00:52:00,
2013-03-30 21:02:00,48.0,34.0,30.22,WNW,300,0.0,-999.0,59,-99.99,,,-99.99,,2013-03-31 01:02:00,
2013-03-30 21:12:00,48.0,34.0,30.22,WNW,300,0.0,-999.0,59,-99.99,,,-99.99,,2013-03-31 01:12:00,
2013-03-30 21:22:00,47.0,34.0,30.22,WNW,300,0.0,-999.0,61,-99.99,,,-99.99,,2013-03-31 01:22:00,
2013-03-30 21:32:00,46.0,35.0,30.22,WNW,300,1.0,-999.0,64,-99.99,,,-99.99,,2013-03-31 01:32:00,
2013-03-30 21:42:00,46.0,35.0,30.22,WNW,300,1.0,-999.0,64,-99.99,,,-99.99,,2013-03-31 01:42:00,
2013-03-30 21:52:00,46.0,35.0,30.22,WNW,300,0.0,-999.0,65,-99.99,,,-99.99,,2013-03-31 01:52:00,
2013-03-30 22:02:00,45.0,34.0,30.22,WNW,300,1.0,-999.0,66,-99.99,,,-99.99,,2013-03-31 02:02:00,
2013-03-30 22:13:00,45.0,34.0,30.22,WNW,300,1.0,-999.0,66,-99.99,,,-99.99,,2013-03-31 02:13:00,
2013-03-30 22:22:00,44.0,34.0,30.22,WNW,300,0.0,-999.0,67,-99.99,,,-99.99,,2013-03-31 02:22:00,
2013-03-30 22:32:00,44.0,34.0,30.21,WNW,300,0.0,-999.0,69,-99.99,,,-99.99,,2013-03-31 02:32:00,
2013-03-30 22:43:00,44.0,34.0,30.21,WNW,300,0.0,-999.0,69,-99.99,,,-99.99,,2013-03-31 02:43:00,
2013-03-30 22:52:00,43.0,34.0,30.21,WNW,300,0.0,-999.0,71,-99.99,,,-99.99,,2013-03-31 02:52:00,
2013-03-30 23:02:00,42.0,34.0,30.22,WNW,300,1.0,-999.0,72,-99.99,,,-99.99,,2013-03-31 03:02:00,
2013-03-30 23:13:00,42.0,34.0,30.22,WNW,300,1.0,-999.0,72,-99.99,,,-99.99,,2013-03-31 03:13:00,
2013-03-30 23:22:00,43.0,34.0,30.22,WNW,300,0.0,-999.0,70,-99.99,,,-99.99,,2013-03-31 03:22:00,
2013-03-30 23:33:00,43.0,34.0,30.21,WNW,300,0.0,-999.0,70,-99.99,,,-99.99,,2013-03-31 03:33:00,
2013-03-30 23:43:00,43.0,34.0,30.21,WNW,300,0.0,-999.0,70,-99.99,,,-99.99,,2013-03-31 03:43:00,
2013-03-30 23:53:00,42.0,33.0,30.21,WNW,300,0.0,-999.0,69,-99.99,,,-99.99,,2013-03-31 03:53:00,